Tracking 20628 objects as of 7-Apr-2020
HD Live streaming from Space Station
objects crossing your sky now

COSMOS 374 DEB

Track COSMOS 374 DEB now!
10-day predictions


NORAD ID: 4617
Int'l Code: 1970-089D
Perigee: 479.1 km
Apogee: 1,210.6 km
Inclination: 62.9 °
Period: 101.7 minutes
Semi major axis: 7215 km
RCS: 0.3477 m2 (medium)
Launch date: October 23, 1970
Source: Commonwealth of Independent States (former USSR) (CIS)
Launch site: TYURATAM MISSILE AND SPACE COMPLEX (TTMTR)

Note: This is SATELLITE DEBRIS
aabbcc
Your satellite tracking list
Your tracking list is empty




NASA's NSSDC Master Catalog

Two Line Element Set (TLE):
1  4617U 70089D   20098.32553564 +.00001072 +00000-0 +17345-3 0  9997
2  4617 062.9363 317.0569 0506893 072.9802 292.6139 14.16362070445318
Source of the keplerian elements: AFSPC